www.pogodaiklimat.ru

Погода и климат >> Архив погоды >> Норвегия >> Аннёйа


ПОГОДА на Аннёйа

  • Прогноз погоды на Аннёйа
  • Монитор погоды на Аннёйа

АРХИВ ПОГОДЫ на Аннёйа

Время (UTC), дата Ветер
(напр.,м/с)
 
Видим.   Явления Облачность Т
(С)
Тd
(С)
f
(%)
Тe
(С)
Тes
(С)
Комфортность P
(гПа)
Po
(гПа)
Тmin
(С)
Tmax
(С)
R
(мм)
R24
(мм)
S
(см)
07 11.07 С 4 н/о н/о +10.7 +8.6 87 +8 +8 1014.7 1013.1
08 11.07 С 5 н/о н/о +10.6 +8.0 84 +8 +8 1014.8 1013.2
09 11.07 С 5 н/о н/о +11.5 +8.7 83 +9 +9 1014.9 1013.3
10 11.07 С 5 н/о н/о +10.9 +7.8 81 +8 +8 1015.0 1013.4
11 11.07 С 5 н/о н/о +10.6 +7.5 81 +8 +8 1014.8 1013.3
12 11.07 С 5 н/о н/о +10.6 +8.0 84 +8 +8 1014.8 1013.3
13 11.07 С 5 н/о н/о +10.2 +7.4 83 +7 +7 1015.0 1013.4
14 11.07 С 5 н/о н/о +9.7 +7.1 84 +6 +6 1015.0 1013.4
15 11.07 С 5 н/о н/о +9.6 +7.5 87 +6 +6 1015.0 1013.5
16 11.07 С 5 н/о н/о +9.2 +7.6 90 +6 +6 1014.9 1013.3
17 11.07 С 5 н/о н/о +8.6 +7.2 91 +5 +5 1014.9 1013.3
18 11.07 С 5 н/о н/о +8.4 +7.0 91 +5 +5 1014.8 1013.3
19 11.07 С 6 н/о н/о +8.7 +7.5 92 +5 +5 1014.7 1013.1
20 11.07 С 5 н/о н/о +8.3 +7.1 92 +5 +5 1014.7 1013.1
21 11.07 СВ 6 н/о н/о +8.2 +7.4 95 +4 +4 1014.8 1013.2
22 11.07 С 6 н/о н/о +8.1 +7.3 95 +4 +4 1014.8 1013.2
23 11.07 С 6 н/о н/о +7.8 +7.1 95 +3 +3 1014.7 1013.1
00 12.07 С 6 н/о н/о +7.9 +7.3 96 +4 +4 1014.8 1013.2
01 12.07 СВ 7 н/о н/о +7.8 +6.9 94 +3 +3 1014.8 1013.2
02 12.07 С 7 н/о н/о +8.2 +7.4 95 +4 +4 1014.5 1012.9
03 12.07 СВ 6 н/о н/о +8.1 +7.2 94 +4 +4 1014.5 1012.9
04 12.07 СВ 6 н/о н/о +8.1 +7.2 94 +4 +4 1014.6 1013.0
05 12.07 СВ 7 н/о н/о +8.1 +7.0 93 +4 +4 1014.8 1013.2
06 12.07 С 6 н/о н/о +8.3 +7.1 92 +4 +4 1014.9 1013.3
07 12.07 н/о
08 12.07 СВ 7 н/о н/о +8.8 +7.3 90 +5 +5 1015.1 1013.5
09 12.07 СВ 6 н/о н/о +8.9 +7.2 89 +5 +5 1015.1 1013.5
10 12.07 С 6 н/о н/о +9.1 +7.2 88 +5 +5 1015.2 1013.6
11 12.07 СВ 7 н/о н/о +9.4 +7.2 86 +5 +5 1015.3 1013.7
12 12.07 СВ 7 н/о н/о +9.4 +7.4 87 +5 +5 1015.3 1013.7
13 12.07 СВ 7 н/о н/о +9.6 +7.2 85 +6 +6 1015.3 1013.7
14 12.07 С 7 н/о н/о +9.8 +7.4 85 +6 +6 1015.4 1013.8
15 12.07 н/о
16 12.07 СВ 8 н/о н/о +9.7 +7.5 86 +6 +6 1015.2 1013.6
17 12.07 С 7 н/о н/о +9.6 +7.4 86 +6 +6 1015.1 1013.6
18 12.07 СВ 7 н/о н/о +9.6 +7.5 87 +6 +6 1015.0 1013.4
19 12.07 СВ 7 н/о н/о +9.5 +7.6 88 +5 +5 1015.1 1013.5
20 12.07 СВ 6 н/о н/о +9.4 +7.7 89 +6 +6 1015.3 1013.8
21 12.07 С 7 н/о н/о +9.5 +7.8 89 +5 +5 1015.3 1013.7
22 12.07 С 7 н/о н/о +9.6 +8.0 90 +6 +6 1015.4 1013.8
23 12.07 СВ 7 н/о н/о +9.7 +8.3 91 +6 +6 1015.4 1013.8
00 13.07 СВ 8 н/о н/о +9.7 +8.5 92 +5 +5 1015.2 1013.6
01 13.07 СВ 7 н/о н/о +9.7 +8.5 92 +6 +6 1015.3 1013.7
02 13.07 СВ 7 н/о н/о +9.7 +8.5 92 +6 +6 1015.4 1013.8
03 13.07 СВ 7 н/о н/о +9.9 +8.3 90 +6 +6 1015.3 1013.7
04 13.07 СВ 7 н/о н/о +10.0 +8.3 89 +6 +6 1015.4 1013.8
05 13.07 СВ 8 н/о н/о +10.3 +8.4 88 +6 +6 1015.4 1013.8
06 13.07 СВ 7 н/о н/о +10.6 +8.5 87 +7 +7 1015.5 1013.9
07 13.07 СВ 7 н/о н/о +10.5 +8.3 86 +7 +7 1015.8 1014.2
08 13.07 СВ 7 н/о н/о +11.0 +8.8 86 +8 +8 1016.1 1014.5
09 13.07 СВ 7 н/о н/о +10.9 +8.3 84 +7 +7 1016.2 1014.6
10 13.07 СВ 7 н/о н/о +11.2 +8.4 83 +8 +8 1016.2 1014.7
11 13.07 СВ 8 н/о н/о +10.9 +8.3 84 +7 +7 1016.1 1014.6
12 13.07 СВ 9 н/о н/о +10.8 +7.7 81 +7 +7 1016.2 1014.6
13 13.07 СВ 9 н/о н/о +10.9 +8.0 82 +7 +7 1016.3 1014.7
14 13.07 С 10 н/о н/о +10.8 +7.9 82 +7 +7 1016.5 1014.9
15 13.07 СВ 9 н/о н/о +10.7 +7.6 81 +7 +7 1016.7 1015.1
16 13.07 СВ 9 н/о н/о +10.4 +7.3 81 +6 +6 1016.7 1015.1
17 13.07 С 9 н/о н/о +9.9 +6.8 81 +6 +6 1016.9 1015.3
18 13.07 С 9 н/о н/о +9.3 +6.4 82 +5 +5 1016.8 1015.3
19 13.07 С 10 н/о н/о +9.1 +6.2 82 +4 +4 1017.0 1015.4
20 13.07 С 10 н/о н/о +8.9 +6.0 82 +4 +4 1017.1 1015.5
21 13.07 С 9 н/о н/о +8.7 +5.6 81 +4 +4 1017.3 1015.7
22 13.07 СВ 9 н/о н/о +8.7 +5.8 82 +4 +4 1017.4 1015.8
23 13.07 С 9 н/о н/о +8.6 +5.7 82 +4 +4 1017.1 1015.5
00 14.07 СВ 9 н/о н/о +8.3 +5.1 80 +3 +3 1017.1 1015.5
01 14.07 СВ 9 н/о н/о +8.5 +5.4 81 +4 +4 1017.2 1015.6
02 14.07 СВ 9 н/о н/о +8.5 +5.3 80 +4 +4 1016.9 1015.3
03 14.07 СВ 9 н/о н/о +8.6 +5.4 80 +4 +4 1016.9 1015.3
04 14.07 СВ 10 н/о н/о +8.7 +5.8 82 +4 +4 1016.7 1015.1
05 14.07 СВ 10 н/о н/о +8.7 +5.5 80 +4 +4 1016.8 1015.2
06 14.07 СВ 8 н/о н/о +8.8 +5.0 77 +4 +4 1016.8 1015.2
07 14.07 С 9 н/о н/о +8.9 +5.6 80 +4 +4 1017.0 1015.4
08 14.07 СВ 8 н/о н/о +9.1 +5.7 79 +5 +5 1017.1 1015.5
09 14.07 СВ 9 н/о н/о +9.6 +6.0 78 +5 +5 1017.1 1015.5
10 14.07 СВ 8 н/о н/о +9.5 +6.4 81 +5 +5 1017.1 1015.5
11 14.07 СВ 8 н/о н/о +10.2 +6.0 75 +6 +6 1016.9 1015.3
12 14.07 СВ 8 н/о н/о +10.6 +6.2 74 +7 +7 1016.8 1015.2
13 14.07 СВ 8 н/о н/о +10.4 +5.6 72 +7 +7 1016.6 1015.0
14 14.07 СВ 9 н/о н/о +10.7 +6.1 73 +7 +7 1016.5 1015.0
15 14.07 СВ 8 н/о н/о +10.4 +6.4 76 +7 +7 1016.5 1014.9
16 14.07 СВ 8 н/о н/о +9.9 +5.9 76 +6 +6 1016.5 1014.9
17 14.07 СВ 7 н/о н/о +9.7 +5.9 77 +6 +6 1016.4 1014.8
18 14.07 СВ 7 н/о н/о +9.4 +5.6 77 +6 +6 1016.2 1014.6
19 14.07 СВ 7 н/о н/о +8.9 +5.6 80 +5 +5 1015.9 1014.3
20 14.07 СВ 7 н/о н/о +9.0 +5.9 81 +5 +5 1015.8 1014.2
21 14.07 СВ 8 н/о н/о +9.0 +6.3 83 +5 +5 1015.6 1014.1
22 14.07 СВ 7 н/о н/о +8.8 +5.9 82 +5 +5 1015.6 1014.0
23 14.07 СВ 7 н/о н/о +8.8 +6.1 83 +5 +5 1015.4 1013.8
00 15.07 СВ 7 н/о н/о +8.9 +6.2 83 +5 +5 1015.3 1013.7
01 15.07 СВ 7 н/о н/о +8.6 +6.1 84 +4 +4 1015.2 1013.6
02 15.07 СВ 7 н/о н/о +8.6 +6.6 87 +4 +4 1015.0 1013.4
03 15.07 СВ 6 н/о н/о +9.3 +6.9 85 +6 +6 1015.1 1013.5
04 15.07 С 6 н/о н/о +9.2 +7.0 86 +5 +5 1015.0 1013.4
05 15.07 СВ 6 н/о н/о +9.7 +6.8 82 +6 +6 1015.0 1013.4
06 15.07 СВ 7 н/о н/о +9.8 +6.9 82 +6 +6 1015.1 1013.5
07 15.07 СВ 6 н/о н/о +10.6 +7.3 80 +7 +7 1015.1 1013.5
08 15.07 С 6 н/о н/о +10.6 +7.1 79 +7 +7 1015.2 1013.6
09 15.07 СВ 6 н/о н/о +10.0 +6.2 77 +7 +7 1015.3 1013.7
10 15.07 СВ 5 н/о н/о +10.6 +6.9 78 +8 +8 1015.4 1013.8
11 15.07 С 6 н/о н/о +11.1 +7.4 78 +8 +8 1015.4 1013.8
12 15.07 С 6 н/о н/о +11.1 +6.7 74 +8 +8 1015.4 1013.9
13 15.07 С 6 н/о н/о +10.8 +6.2 73 +8 +8 1015.7 1014.1
14 15.07 С 5 н/о н/о +10.6 +6.6 76 +8 +8 1015.9 1014.3
15 15.07 С 5 н/о н/о +10.3 +6.3 76 +7 +7 1015.9 1014.3
16 15.07 С 5 н/о н/о +10.3 +6.3 76 +7 +7 1015.9 1014.3
17 15.07 С 5 н/о н/о +9.9 +6.1 77 +7 +7 1016.0 1014.4
18 15.07 СВ 6 н/о н/о +9.4 +5.8 78 +6 +6 1016.1 1014.5
19 15.07 С 5 н/о н/о +9.4 +6.3 81 +6 +6 1016.2 1014.6
20 15.07 СВ 6 н/о н/о +9.1 +5.7 79 +5 +5 1016.5 1014.9
21 15.07 СВ 6 н/о н/о +8.5 +5.4 81 +5 +5 1016.5 1014.9
22 15.07 СВ 6 н/о н/о +8.4 +5.5 82 +4 +4 1016.6 1015.0
23 15.07 СВ 5 н/о н/о +8.1 +5.2 82 +4 +4 1016.7 1015.1
00 16.07 СВ 6 н/о н/о +8.1 +5.4 83 +4 +4 1016.7 1015.1
01 16.07 С 5 н/о н/о +8.2 +5.8 85 +5 +5 1016.9 1015.3
02 16.07 С 5 н/о н/о +8.3 +5.8 84 +5 +5 1017.0 1015.4
03 16.07 С 5 н/о н/о +8.4 +5.5 82 +5 +5 1017.1 1015.5
04 16.07 С 6 н/о н/о +8.9 +5.8 81 +5 +5 1017.1 1015.5
05 16.07 С 5 н/о н/о +9.1 +5.3 77 +6 +6 1017.3 1015.7
06 16.07 С 4 н/о н/о +9.0 +5.4 78 +6 +6 1017.3 1015.7
07 16.07 С 6 н/о н/о +9.2 +5.4 77 +6 +6 1017.4 1015.8
08 16.07 С 5 н/о н/о +9.5 +5.7 77 +6 +6 1017.5 1015.9
09 16.07 С 5 н/о н/о +9.8 +6.0 77 +7 +7 1017.5 1015.9
10 16.07 С 5 н/о н/о +10.6 +5.6 71 +8 +8 1017.6 1016.0
11 16.07 С 5 н/о н/о +10.5 +5.7 72 +8 +8 1017.7 1016.1
12 16.07 С 5 н/о н/о +10.6 +5.6 71 +8 +8 1017.7 1016.1
13 16.07 С 6 н/о н/о +11.0 +6.8 75 +8 +8 1017.8 1016.2
14 16.07 С 5 н/о н/о +10.5 +6.3 75 +8 +8 1017.9 1016.3
15 16.07 С 5 н/о н/о +10.1 +6.1 76 +7 +7 1018.0 1016.4
16 16.07 С 5 н/о н/о +9.8 +6.2 78 +7 +7 1018.1 1016.5
17 16.07 С 5 н/о н/о +9.5 +5.9 78 +6 +6 1018.0 1016.4
18 16.07 С 5 н/о н/о +9.3 +6.0 80 +6 +6 1018.0 1016.4
19 16.07 СВ 5 н/о н/о +9.1 +5.8 80 +6 +6 1018.0 1016.4
20 16.07 СВ 6 н/о н/о +9.0 +5.9 81 +5 +5 1017.9 1016.3
21 16.07 СВ 6 н/о н/о +8.7 +5.6 81 +5 +5 1017.8 1016.2
22 16.07 С 5 н/о н/о +8.8 +5.9 82 +5 +5 1017.8 1016.2
23 16.07 СВ 6 н/о н/о +8.7 +5.5 80 +5 +5 1017.7 1016.1
00 17.07 СВ 6 н/о н/о +8.8 +5.7 81 +5 +5 1017.6 1016.0
01 17.07 С 6 н/о н/о +8.8 +5.4 79 +5 +5 1017.6 1016.0
02 17.07 С 6 н/о н/о +8.8 +5.2 78 +5 +5 1017.5 1015.9
03 17.07 СВ 7 н/о н/о +8.9 +6.9 87 +5 +5 1017.2 1015.6 0.1
04 17.07 СВ 8 н/о н/о +8.8 +6.3 84 +4 +4 1016.9 1015.3
05 17.07 СВ 8 н/о н/о +8.7 +5.5 80 +4 +4 1016.9 1015.3
06 17.07 СВ 7 н/о н/о +8.8 +5.7 81 +5 +5 1016.5 1014.9
07 17.07 СВ 6 н/о н/о +9.0 +5.9 81 +5 +5 1016.5 1015.0 0.1
08 17.07 СВ 6 н/о н/о +9.2 +5.2 76 +6 +6 1016.4 1014.8
09 17.07 С 6 н/о н/о +9.6 +4.8 72 +6 +6 1016.3 1014.7
10 17.07 С 5 н/о н/о +9.7 +5.3 74 +7 +7 1016.3 1014.8
11 17.07 С 6 н/о н/о +9.9 +5.5 74 +7 +7 1016.3 1014.7
12 17.07 С 5 н/о н/о +9.9 +5.5 74 +7 +7 1016.1 1014.5
13 17.07 С 5 н/о н/о +10.0 +5.0 71 +7 +7 1016.0 1014.4
14 17.07 С 4 н/о н/о +10.4 +5.4 71 +8 +8 1015.8 1014.2
15 17.07 С 4 н/о н/о +10.2 +4.8 69 +8 +8 1015.6 1014.0
16 17.07 СВ 4 н/о н/о +10.4 +5.0 69 +8 +8 1015.5 1013.9
17 17.07 СВ 3 н/о н/о +9.9 +4.7 70 +8 +8 1015.4 1013.8
18 17.07 С 3 н/о н/о +9.7 +5.5 75 +8 +8 1015.3 1013.7 0.1
19 17.07 С 3 н/о н/о +9.4 +5.2 75 +7 +7 1015.2 1013.6
20 17.07 С 2 н/о н/о +9.0 +5.2 77 +7 +7 1015.0 1013.4
21 17.07 С 2 н/о н/о +8.8 +5.6 80 +7 +7 1014.9 1013.3
22 17.07 С 2 н/о н/о +8.8 +5.0 77 +7 +7 1014.9 1013.4
23 17.07 С 2 н/о н/о +8.3 +4.1 75 +7 +7 1014.9 1013.3
00 18.07 СЗ 1 н/о н/о +7.4 +4.5 82 +7 +7 1015.0 1013.4
01 18.07 С 2 н/о н/о +8.3 +5.1 80 +6 +6 1014.9 1013.3
02 18.07 С 3 н/о н/о +8.4 +4.8 78 +6 +6 1014.7 1013.1
03 18.07 СВ 3 н/о н/о +8.8 +4.2 73 +6 +6 1014.7 1013.1
04 18.07 С 3 н/о н/о +9.1 +3.7 69 +7 +7 1014.6 1013.0
05 18.07 С 3 н/о н/о +9.6 +4.0 68 +8 +8 1014.5 1013.0
06 18.07 СВ 3 н/о н/о +10.1 +4.1 66 +8 +8 1014.5 1012.9

 

Местоположение метеостанции Аннёйа (Норвегия): широта 69.30 долгота 16.13 высота над уровнем моря 10 м.

В архиве по умолчанию представлена погода на Аннёйа за последнюю неделю. Архивные данные за месяц целиком и за предыдущие месяцы, начиная с января 2011 года, Вы можете получить, выбрав интересующий диапазон дат из раскрывающегося списка и нажав кнопку "Ввод!".


*Определитесь, кто Вы:
робот инопланетянин человек

Внимание! Время в таблицах - всемирное. Для получения местного времени необходимо прибавить поправку, которая равна 1 ч.

Смотрите также архив погоды в соседних городах и на ближайших метеорологических станциях:

Погода в Харстаде (Норвегия) (58 км)
Погода в Сортланне (Норвегия) (72 км)
Погода на Маяке Hekkingen (Норвегия) (74 км)
Погода в Стокмаркнес аэропорту (Норвегия) (91 км)
Погода в Аэропорту Харстад/Нарвик (Норвегия) (93 км)
Погода в Бардуфоссе (Норвегия) (99 км)
Погода в Бё (Норвегия) (102 км)
Погода на Маяке Rotvaer (Норвегия) (104 км)
Погода в Нарвике (Норвегия) (108 км)
Погода в Страумснесе (Норвегия) (115 км)

Пояснения к столбцам:

Ветер - указаны скорость ветра в м/с - средняя за 10 мин, порывы в срок и между сроками (в фигурных скобках) и направление, откуда дует ветер: С - северный, СВ - северо-восточный, В - восточный, ЮВ - юго-восточный, Ю - южный, ЮЗ - юго-западный, З - западный, СЗ - северо-западный.
Видимость - горизонтальная дальность видимости в метрах или километрах. При видимости от 1 до 10 км при отсутствии осадков обычно наблюдается дымка, при ухудшении видимости до 1 км и менее - туман. В сухую погоду видимость может ухудшаться дымом, пылью или мглою.
Явления - указаны атмосферные явления, наблюдавшиеся в срок или в последний час перед сроком; фигурными скобками обозначены явления, наблюдавшиеся между сроками (за 1-3 часа до срока); квадратными скобками обозначены град или гололедные отложения с указанием их диаметра в мм.
Облачность - указаны через наклонную черту общая и нижняя облачность в баллах и высота нижней границы облаков в метрах; квадратными скобками обозначены формы облаков: Ci - перистые, Cs - перисто-слоистые, Cc - перисто-кучевые, Ac - высококучевые, As - высокослоистые, Sc - слоисто-кучевые, Ns - слоисто-дождевые, Cu - кучевые, Cb - кучево-дождевые. Подробнее классификацию облаков см. в Атласе облаков (PDF).
T - Температура воздуха - температура, измеренная на высоте 2 м над землей.
Td - Температура точки росы - температура, при понижении до которой содержащийся в воздухе водяной пар достигнет насыщения.
f - Относительная влажность воздуха - влажноcть воздуха, измеренная на высоте 2 м над землей.
Te - Эффективная температура - температура, которую ощущает одетый по сезону человек в тени. Характеристика душности погоды. При расчете учитывается влияние влажности воздуха и скорости ветра на теплоощущения человека.
Tes - Эффективная температура на солнце - температура, которую ощущает человек, с поправкой на солнечный нагрев. Характеристика знойности погоды. Зависит от высоты солнца над горизонтом, облачности и скорости ветра. Ночью, в пасмурную погоду, а также при ветре 12 м/с и более поправка равна нулю.
P - Атмосферное давление - приведенное к уровню моря атмосферное давление.
Po - Атмосферное давление - измеренное на уровне метеостанции атмосферное давление.
Tmin - Минимальная температура - минимум температуры воздуха на высоте 2 м над землей.
Tmax - Максимальная температура - максимум температуры воздуха на высоте 2 м над землей.
R - Количество осадков - Количество выпавших осадков за период времени, мм. При наведении курсора мыши на число - период времени, за который выпало указанное количество осадков.
R24 - Количество осадков - Количество выпавших осадков за 24 часа, мм.
S - Снежный покров - Высота снежного покрова, см. При наведении курсора мыши на число - состояние снежного покрова и степень покрытия местности в баллах.